TimePST,TemperatureF,Dew PointF,Humidity,Sea Level PressureIn,VisibilityMPH,Wind Direction,Wind SpeedMPH,Gust SpeedMPH,PrecipitationIn,Events,Conditions,WindDirDegrees,DateUTC
12:54 AM,48.0,45.0,89,30.24,10.0,North,6.9,-,N/A,,Clear,10,2012-02-09 08:54:00
1:54 AM,46.0,44.1,93,30.25,10.0,North,5.8,-,N/A,,Clear,10,2012-02-09 09:54:00
2:54 AM,46.9,44.1,90,30.25,10.0,North,3.5,-,N/A,,Clear,10,2012-02-09 10:54:00
3:38 AM,41.0,39.2,93,30.27,1.8,Calm,Calm,-,N/A,,Clear,0,2012-02-09 11:38:00
3:47 AM,41.0,39.2,93,30.27,0.5,Calm,Calm,-,N/A,,Clear,0,2012-02-09 11:47:00
3:54 AM,42.1,41.0,96,30.25,0.2,Calm,Calm,-,N/A,,Unknown,0,2012-02-09 11:54:00
4:01 AM,42.8,41.0,93,30.27,1.0,Calm,Calm,-,N/A,,Unknown,0,2012-02-09 12:01:00
4:03 AM,42.8,41.0,93,30.27,2.5,Calm,Calm,-,N/A,,Partly Cloudy,0,2012-02-09 12:03:00
4:10 AM,42.8,41.0,93,30.27,9.0,Calm,Calm,-,N/A,,Partly Cloudy,0,2012-02-09 12:10:00
4:54 AM,44.1,42.1,93,30.24,10.0,NNE,4.6,-,N/A,,Clear,20,2012-02-09 12:54:00
5:54 AM,43.0,42.1,97,30.24,10.0,North,5.8,-,N/A,,Clear,350,2012-02-09 13:54:00
6:54 AM,39.0,37.9,96,30.24,10.0,SE,3.5,-,N/A,,Clear,130,2012-02-09 14:54:00
7:03 AM,39.2,39.2,100,30.27,1.0,Calm,Calm,-,N/A,,Clear,0,2012-02-09 15:03:00
7:12 AM,39.2,39.2,100,30.27,10.0,Calm,Calm,-,N/A,,Clear,0,2012-02-09 15:12:00
7:54 AM,43.0,41.0,93,30.25,10.0,NNW,4.6,-,N/A,,Clear,340,2012-02-09 15:54:00
8:54 AM,52.0,48.0,86,30.26,10.0,North,3.5,-,N/A,,Clear,360,2012-02-09 16:54:00
9:54 AM,57.9,48.9,72,30.26,10.0,Calm,Calm,-,N/A,,Clear,0,2012-02-09 17:54:00
10:54 AM,62.1,48.9,62,30.25,10.0,East,10.4,-,N/A,,Clear,90,2012-02-09 18:54:00
11:54 AM,64.9,48.9,56,30.24,10.0,East,9.2,-,N/A,,Clear,80,2012-02-09 19:54:00
12:54 PM,66.9,48.0,51,30.22,10.0,East,9.2,-,N/A,,Clear,90,2012-02-09 20:54:00
1:54 PM,69.1,48.0,47,30.19,10.0,ESE,10.4,-,N/A,,Clear,120,2012-02-09 21:54:00
2:54 PM,68.0,48.0,49,30.18,10.0,East,10.4,-,N/A,,Clear,100,2012-02-09 22:54:00
3:54 PM,66.9,48.0,51,30.17,10.0,East,9.2,-,N/A,,Clear,100,2012-02-09 23:54:00
4:54 PM,64.9,50.0,58,30.17,10.0,ESE,6.9,-,N/A,,Clear,120,2012-02-10 00:54:00
5:54 PM,60.1,48.9,67,30.16,10.0,East,6.9,-,N/A,,Clear,100,2012-02-10 01:54:00
6:54 PM,60.1,48.9,67,30.12,10.0,East,9.2,-,N/A,,Clear,90,2012-02-10 02:54:00
7:54 PM,55.0,48.0,77,30.13,10.0,Calm,Calm,-,N/A,,Clear,0,2012-02-10 03:54:00
8:54 PM,51.1,46.9,86,30.15,10.0,NNW,3.5,-,N/A,,Clear,330,2012-02-10 04:54:00
9:54 PM,50.0,45.0,83,30.17,10.0,NW,4.6,-,N/A,,Clear,310,2012-02-10 05:54:00
10:54 PM,46.0,44.1,93,30.16,9.0,ESE,3.5,-,N/A,,Clear,120,2012-02-10 06:54:00
11:54 PM,44.1,42.1,93,30.17,7.0,Calm,Calm,-,N/A,,Clear,0,2012-02-10 07:54:00